Content
SEND FEEDBACK

Daily
Averages
Monthly
Summary
Honduras

TEGUCIGALPA, HONDURAS


Home > Central America > Honduras
Elevation: 3260 feet     Latitude: 14 03N     Longitude: 087 13W

WEATHER
 
SELECT A DAY
Number of Records: 58,434;   Date Range: 7/9/96 - 11/24/14
 
SHARE

PRINT THIS DATA

[ ← Previous Day ]
WEATHER ALMANAC - MARCH 31, 2013
[ Next Day → ]
[ °C ]   °F
Weather ElementAverageHighLow
Temperature72.4 °F85 °F (3:00 pm)64 °F (3:00 am)
Dewpoint63 °F65 °F (9:00 am)59 °F (3:00 pm)
Humidity73.9 %100 % (2:00 am)32 % (3:00 pm)
Barometer30.03 in30.15 in (9:00 am)29.75 in (3:00 pm)
Wind Speed5.8 mph11.5 mph (10:00 am)
Weather ElementAverage
Visibility6.6 mi
Wind DirectionSSE (142.3 °)

Weather ElementTotal
Precipitation---
Cooling Degree Days9.5 (Base 65)
Growing Degree Days24.5 (Base 50)
Averaged from 31 records on March 31, 2013
WEATHER CONDITIONS BREAKOUT
WIND DIRECTION BREAKOUT
WEATHER BY HOUR - MARCH 31, 2013
[ °C ]   °F
Local TimeTemperatureDewpointHumidityBarometerVisibilityWind DirectionWind SpeedGust SpeedPrecipitationEventsConditions
12:00 AM68.0 °F64.4 °F88 %30.12 in6.2 miNorth (360°)6.9 mphPartly Cloudy
1:00 AM66.2 °F64.4 °F94 %30.09 in6.2 miNNE (20°)4.6 mphPartly Cloudy
2:00 AM64.4 °F64.4 °F100 %30.09 in6.2 miNNE (20°)3.5 mphPartly Cloudy
3:00 AM64.0 °F64.0 °F99 %29.94 in6.0 miNNE (20°)3.5 mphHaze
3:00 AM64.4 °F64.4 °F100 %30.06 in6.2 miNNE (20°)3.5 mphScattered Clouds
4:00 AM64.4 °F64.4 °F100 %30.06 in6.2 miCalmScattered Clouds
5:00 AM64.4 °F64.4 °F100 %30.06 in6.2 miNorth (10°)4.6 mphScattered Clouds
6:00 AM64.4 °F64.4 °F100 %30.09 in5.0 miNorth (350°)4.6 mphMostly Cloudy
6:00 AM65.0 °F64.0 °F96 %29.96 in5.0 miNorth (350°)4.6 mphHaze
7:00 AM66.2 °F64.4 °F94 %30.09 in6.2 miNorth (350°)3.5 mphMostly Cloudy
8:00 AM68.0 °F64.4 °F88 %30.12 in6.2 miNorth (360°)9.2 mphMostly Cloudy
9:00 AM70.0 °F65.0 °F79 %29.97 in9.0 miNorth6.9 mphHaze
9:00 AM69.8 °F64.4 °F83 %30.15 in6.2 miNorth (360°)6.9 mphMostly Cloudy
10:00 AM75.2 °F64.4 °F69 %30.12 in6.2 miNorth (360°)11.5 mphMostly Cloudy
11:00 AM75.2 °F64.4 °F69 %30.09 in6.2 miNE (40°)9.2 mphMostly Cloudy
12:00 PM78.8 °F64.4 °F61 %30.09 in6.2 miNE (40°)6.9 mphMostly Cloudy
12:00 PM79.0 °F64.0 °F50 %29.86 in9.0 miNE (40°)6.9 mphHaze
1:00 PM82.4 °F62.6 °F51 %30.06 in6.2 miNE (40°)6.9 mphScattered Clouds
2:00 PM84.2 °F62.6 °F48 %30.04 in6.2 miNE (50°)9.2 mphScattered Clouds
3:00 PM85.0 °F60.0 °F32 %29.75 in9.0 miEast (90°)6.9 mphHaze
3:00 PM84.2 °F59.0 °F42 %30.01 in6.2 miEast (90°)6.9 mphScattered Clouds
4:00 PM84.2 °F59.0 °F42 %30.01 in6.2 miEast (80°)5.8 mphScattered Clouds
5:00 PM82.4 °F59.0 °F45 %30.01 in6.2 miEast (80°)6.9 mphScattered Clouds
6:00 PM78.8 °F60.8 °F54 %30.01 in6.2 miENE (70°)10.4 mphPartly Cloudy
6:00 PM78.0 °F60.0 °F45 %29.80 in9.0 miENE (70°)10.4 mphHaze
7:00 PM75.2 °F62.6 °F65 %30.04 in6.2 miENE (70°)8.1 mphPartly Cloudy
8:00 PM71.6 °F64.4 °F78 %30.04 in6.2 miCalmClear
9:00 PM68.0 °F62.0 °F74 %29.90 in9.0 miWNW (290°)3.5 mphHaze
9:00 PM68.0 °F60.8 °F78 %30.06 in6.2 miWNW (290°)3.5 mphClear
10:00 PM68.0 °F62.6 °F83 %30.06 in6.2 miWest (260°)3.5 mphClear
11:00 PM68.0 °F62.6 °F83 %30.09 in6.2 miSW (230°)2.3 mphClear
Hourly data recorded from MHTG, located miles away from Tegucigalpa, Honduras







STORIES FROM OUR PARTNERS